[[{"header":{"parameterUnit":"m.s-1","parameterCategory":1,"la1":30.2991,"la2":30.254,"lo1":-89.0895,"lo2":-89.0444,"dy":0.0017,"dx":0.0017,"nx":28,"ny":28,"refTime":"2023-10-29T09:00:00:Z","depth":0,"parameterNumber":2,"parameterNumberName":"U-component_of_WINDS"},"data":[0,0,0,0,0,0,0,0,0,0,0,0,0,0,0,0,0,0,0,0,0,0,0,0,0,0,0,0,0,0,0,0,0,0,0,0,0,0,0,0,0,0,0,0,0,0,0,0,0,0,0,0,0,0,0,0,0,0,-2.5806,-2.5806,0,-2.581,-2.581,-2.581,-2.5727,-2.5725,-2.5723,-2.5721,-2.5727,-2.5729,-2.5731,0,0,0,0,0,0,0,0,0,0,0,0,0,-2.5731,-2.5733,-2.5806,-2.5806,-2.5806,-2.581,-2.581,-2.581,-2.5728,-2.5725,-2.5722,-2.572,-2.5726,-2.5729,-2.5732,0,0,0,0,0,0,0,0,0,0,0,0,0,-2.5752,-2.5733,-2.5806,-2.5765,-2.5762,-2.581,-2.581,-2.581,-2.5728,-2.5725,-2.5721,-2.5718,-2.5725,-2.5729,-2.5732,-2.582,0,0,-2.5742,-2.5744,0,0,0,0,0,0,0,0,-2.5751,-2.5755,-2.5771,-2.5768,-2.5764,-2.5765,-2.5786,-2.5813,-2.5729,-2.5741,-2.5721,-2.5717,-2.5742,-2.5744,-2.5752,-2.582,-2.582,-2.5743,-2.5745,-2.5746,-2.5747,0,0,0,0,0,0,0,-2.575,-2.5754,-2.5808,-2.5772,-2.5767,-2.5748,-2.5747,-2.5791,-2.5761,-2.574,-2.5734,-2.5735,-2.574,-2.5749,-2.5752,-2.582,-2.5742,-2.5745,-2.5748,-2.5749,-2.5962,-2.5965,0,0,0,0,0,0,-2.5753,-2.5754,-2.5807,-2.5808,-2.5749,-2.5752,-2.5751,-2.5768,-2.576,-2.5755,-2.5738,-2.5731,-2.5745,-2.5748,-2.5752,-2.5854,-2.5746,-2.5749,-2.5751,-2.5958,-2.5963,-2.5967,0,0,0,0,0,0,-2.5752,-2.5759,-2.5807,-2.5779,-2.5784,-2.5757,-2.5776,-2.577,-2.5779,-2.5758,-2.5753,-2.5753,-2.5743,-2.5747,-2.5804,-2.5853,-2.5751,-2.5754,-2.5954,-2.596,-2.5965,-2.606,0,0,0,0,0,0,-2.575,-2.5759,-2.5791,-2.578,-2.5786,-2.5858,-2.5779,-2.5772,-2.5785,-2.5776,-2.5771,-2.5767,-2.574,-2.5799,-2.5807,-2.5856,-2.5756,-2.5949,-2.5956,-2.5963,-2.6052,-2.6068,-2.6081,0,0,0,0,0,-2.5748,-2.5818,-2.5793,-2.58,-2.5825,-2.5861,-2.5864,-2.5831,-2.5789,-2.5822,-2.5809,-2.5767,-2.5847,-2.5805,-2.5814,-2.5864,-2.5946,-2.5954,-2.5962,-2.6045,-2.6065,-2.6081,0,0,0,0,0,0,-2.5835,-2.5816,-2.5788,-2.5856,-2.5861,-2.5847,-2.5887,-2.5853,-2.587,-2.5861,-2.5821,-2.582,-2.5884,-2.588,-2.5834,-2.595,-2.5889,-2.5899,-2.5949,-2.5967,-2.5982,-2.5981,-2.5759,0,0,0,0,0,-2.5863,-2.5893,-2.5874,-2.5937,-2.5941,-2.5914,-2.5929,-2.5903,-2.5906,-2.5908,-2.5899,-2.5905,-2.5931,-2.5949,-2.5973,-2.6052,-2.605,-2.6091,-2.6106,-2.6118,-2.6127,-2.6169,-2.6187,-2.5993,-2.5993,-2.5993,0,0,-2.592,-2.5913,-2.5934,-2.5955,-2.5955,-2.5988,-2.5916,-2.5954,-2.5978,-2.5914,-2.5966,-2.5961,-2.5965,-2.6033,-2.6063,-2.6032,-2.618,-2.6128,-2.6138,-2.614,-2.6179,-2.6197,-2.6214,-2.5999,-2.5998,-2.5997,0,0,-2.6039,-2.6037,-2.6089,-2.6091,-2.6093,-2.6075,-2.6088,-2.6079,-2.6073,-2.6125,-2.6078,-2.6107,-2.6153,-2.6158,-2.6166,-2.6291,-2.6253,-2.63,-2.6375,-2.6417,-2.6432,-2.6446,-2.649,-2.6506,-2.6309,-2.6309,-2.631,0,-2.611,-2.6156,-2.612,-2.6161,-2.6172,-2.6116,-2.6168,-2.6173,-2.6183,-2.6192,-2.6157,-2.6215,-2.6213,-2.6282,-2.6313,-2.6322,-2.6335,-2.6299,-2.6433,-2.6446,-2.6458,-2.65,-2.6516,-2.6315,-2.6314,-2.6314,-2.6313,0,-2.6243,-2.6276,-2.6318,-2.6328,-2.6344,-2.6391,-2.6363,-2.6384,-2.6358,-2.6344,-2.6399,-2.6396,-2.6417,-2.6432,-2.6407,-2.6498,-2.6479,-2.644,-2.6378,-2.6482,-2.6521,-2.6537,-2.6323,-2.6321,-2.6319,-2.6318,0,0,-2.6416,-2.6407,-2.6422,-2.6427,-2.6425,-2.6451,-2.6497,-2.6517,-2.6536,-2.6546,-2.6583,-2.6624,-2.6588,-2.6598,-2.6573,-2.661,-2.6709,-2.6566,-2.6565,-2.6592,-2.6809,-2.6838,-2.6857,-2.6685,-2.6688,-2.669,-2.6809,0,-2.6532,-2.6607,-2.6577,-2.6655,-2.6686,-2.6634,-2.6673,-2.6678,-2.6667,-2.6693,-2.6681,-2.6711,-2.6661,-2.6666,-2.6701,-2.6689,-2.6752,-2.6681,-2.6719,-2.6721,-2.6718,-2.6877,-2.6908,-2.702,-2.6824,-2.6826,-2.6828,0,-2.6676,-2.6691,-2.6772,-2.6766,-2.6778,-2.6814,-2.6831,-2.6856,-2.6861,-2.6851,-2.6863,-2.6831,-2.6876,-2.6816,-2.6878,-2.6831,-2.6845,-2.6843,-2.6846,-2.6847,-2.678,-2.6882,-2.7055,-2.7071,-2.6851,-2.6849,-2.6848,0,-2.6794,-2.6835,-2.6888,-2.6894,-2.6888,-2.6915,-2.6914,-2.6915,-2.693,-2.6946,-2.6955,-2.6977,-2.6988,-2.7006,-2.6982,-2.694,-2.7048,-2.6985,-2.7041,-2.7042,-2.7064,-2.7063,-2.7241,-2.7076,-2.7076,-2.7075,-2.7075,0,-2.6926,-2.6977,-2.6941,-2.6974,-2.7031,-2.6997,-2.7054,-2.7048,-2.705,-2.7082,-2.7039,-2.707,-2.7036,-2.7065,-2.7046,-2.7101,-2.7107,-2.71,-2.7094,-2.7103,-2.7104,-2.7111,-2.7102,-2.708,-2.7079,-2.7078,-2.7077,0,-2.7066,-2.7043,-2.7099,-2.7089,-2.7088,-2.7131,-2.7123,-2.7154,-2.7141,-2.7182,-2.719,-2.717,-2.7201,-2.7178,-2.721,-2.7197,-2.7269,-2.7253,-2.7267,-2.7262,-2.7319,-2.7314,-2.7506,-2.753,-2.7351,-2.7353,-2.7354,0,-2.7151,-2.7189,-2.7184,-2.7202,-2.7204,-2.7233,-2.7248,-2.7217,-2.7235,-2.7244,-2.7274,-2.7302,-2.7322,-2.7375,-2.7363,-2.7387,-2.7371,-2.7437,-2.7374,-2.7382,-2.7371,-2.7369,-2.7373,-2.7449,-2.7451,-2.7453,-2.7455,0,-2.7304,-2.7291,-2.7313,-2.7333,-2.7352,-2.7366,-2.7376,-2.7394,-2.7362,-2.7385,-2.7416,-2.7432,-2.7464,-2.7492,-2.7512,-2.7513,-2.7479,-2.7475,-2.7489,-2.7498,-2.7504,-2.7501,-2.7301,-2.747,-2.7468,-2.7467,-2.7466,-2.7466,-2.7418,-2.745,-2.7452,-2.7479,-2.7483,-2.7495,-2.7523,-2.7514,-2.7539,-2.7562,-2.7543,-2.758,-2.7586,-2.7609,-2.7614,-2.7644,-2.7617,-2.7637,-2.7642,-2.7648,-2.7655,-2.75,-2.7648,-2.7647,-2.7647,-2.7646,-2.7646,0,-2.7568,-2.7567,-2.7592,-2.7608,-2.763,-2.7596,-2.7607,-2.7628,-2.7661,-2.7668,-2.7689,-2.7726,-2.7753,-2.7745,-2.777,-2.7795,-2.7781,-2.7803,-2.78,-2.7801,-2.7678,-2.7663,-2.7815,-2.7815,-2.7814,-2.7814,-2.7814,-2.7814,-2.7649,-2.7701,-2.7689,-2.7744,-2.7743,-2.7778,-2.7787,-2.7798,-2.7804,-2.7846,-2.7869,-2.7863,-2.7864,-2.7889,-2.7914,-2.7911,-2.7922,-2.795,-2.7941,-2.7826,-2.781,-2.7794,-2.7779,-2.7952,-2.7953,-2.8061,-2.8062,-2.8063]},{"header":{"parameterUnit":"m.s-1","parameterCategory":1,"la1":30.2991,"la2":30.254,"lo1":-89.0895,"lo2":-89.0444,"dy":0.0017,"dx":0.0017,"nx":28,"ny":28,"refTime":"2023-10-29T09:00:00:Z","depth":0,"parameterNumber":3,"parameterNumberName":"V-component_of_WINDS"},"data":[0,0,0,0,0,0,0,0,0,0,0,0,0,0,0,0,0,0,0,0,0,0,0,0,0,0,0,0,0,0,0,0,0,0,0,0,0,0,0,0,0,0,0,0,0,0,0,0,0,0,0,0,0,0,0,0,0,0,1.5608,1.5609,0,1.5681,1.5681,1.5682,1.5733,1.5734,1.5734,1.5734,1.5806,1.5808,1.5809,0,0,0,0,0,0,0,0,0,0,0,0,0,1.5514,1.5516,1.5608,1.5609,1.561,1.568,1.5681,1.5682,1.5733,1.5734,1.5734,1.5735,1.5806,1.5807,1.5809,0,0,0,0,0,0,0,0,0,0,0,0,0,1.5567,1.5516,1.5608,1.5644,1.5648,1.568,1.5682,1.5683,1.5733,1.5734,1.5734,1.5735,1.5805,1.5807,1.5809,1.5811,0,0,1.5816,1.5817,0,0,0,0,0,0,0,0,1.5564,1.5571,1.5638,1.5642,1.5646,1.5699,1.5675,1.5726,1.5733,1.5701,1.5735,1.5735,1.577,1.5775,1.5787,1.5815,1.5818,1.5817,1.5818,1.5819,1.582,0,0,0,0,0,0,0,1.5561,1.5568,1.5637,1.5639,1.5644,1.5656,1.5665,1.5685,1.5731,1.5704,1.5707,1.5715,1.5772,1.5785,1.5789,1.5819,1.5817,1.5819,1.582,1.5821,1.5854,1.5854,0,0,0,0,0,0,1.5551,1.5565,1.5635,1.5639,1.5606,1.5658,1.5667,1.5681,1.5731,1.5739,1.5715,1.5718,1.5781,1.5786,1.5792,1.5799,1.5819,1.5821,1.5822,1.5855,1.5854,1.5853,0,0,0,0,0,0,1.5549,1.5557,1.5632,1.5603,1.5613,1.5659,1.5674,1.5682,1.5695,1.5739,1.5748,1.5719,1.5781,1.5789,1.5807,1.5802,1.5822,1.5824,1.5855,1.5854,1.5854,1.5811,0,0,0,0,0,0,1.5546,1.5556,1.5557,1.5603,1.5615,1.5645,1.5674,1.5683,1.5699,1.5703,1.5746,1.5753,1.5782,1.5803,1.5809,1.5805,1.5826,1.5856,1.5855,1.5854,1.5813,1.5809,1.5806,0,0,0,0,0,1.5543,1.5541,1.5557,1.5565,1.5617,1.5645,1.5652,1.5686,1.5698,1.57,1.5729,1.5752,1.5802,1.5805,1.5812,1.5808,1.5856,1.5855,1.5854,1.5815,1.581,1.5806,0,0,0,0,0,0,1.5492,1.5548,1.5566,1.5579,1.5607,1.5653,1.5656,1.5679,1.5703,1.5706,1.5747,1.5756,1.577,1.5791,1.5794,1.5814,1.5832,1.5832,1.58,1.5795,1.5792,1.5786,1.5828,0,0,0,0,0,1.5483,1.5501,1.5549,1.5556,1.5569,1.561,1.5623,1.5648,1.5678,1.569,1.572,1.5748,1.5771,1.5784,1.5807,1.5817,1.5828,1.5819,1.5815,1.5811,1.5811,1.582,1.5817,1.585,1.585,1.585,0,0,1.5463,1.5496,1.5504,1.5546,1.5571,1.5589,1.562,1.5637,1.5651,1.5692,1.5712,1.5735,1.577,1.5784,1.5792,1.5802,1.5804,1.581,1.5807,1.5808,1.5818,1.5815,1.5812,1.5849,1.5849,1.5849,0,0,1.5437,1.5463,1.5473,1.5497,1.5535,1.5563,1.5565,1.5609,1.5627,1.5647,1.5679,1.5697,1.5733,1.5757,1.5774,1.576,1.5783,1.5766,1.5746,1.5754,1.5751,1.5749,1.5745,1.5743,1.5766,1.5766,1.5766,0,1.5407,1.5436,1.5474,1.5491,1.5509,1.5549,1.5559,1.5581,1.5624,1.5635,1.5646,1.5696,1.5721,1.5743,1.574,1.5752,1.5757,1.5761,1.5749,1.5747,1.5746,1.5742,1.5741,1.5764,1.5764,1.5764,1.5764,0,1.5399,1.5418,1.5422,1.5464,1.5482,1.5495,1.5536,1.555,1.5574,1.56,1.5622,1.5655,1.5686,1.5693,1.5715,1.5719,1.5724,1.5741,1.576,1.574,1.5737,1.5736,1.5761,1.5761,1.5762,1.5763,0,0,1.534,1.5405,1.5406,1.5426,1.5472,1.5488,1.5504,1.5536,1.5548,1.5576,1.5591,1.5623,1.5641,1.566,1.5685,1.5692,1.5681,1.5709,1.5711,1.5703,1.5688,1.5675,1.5673,1.5697,1.5697,1.5696,1.5686,0,1.5321,1.5352,1.5388,1.5407,1.5426,1.5466,1.548,1.551,1.5536,1.5557,1.5586,1.5608,1.5629,1.5641,1.565,1.568,1.5678,1.5682,1.5711,1.5711,1.5701,1.5671,1.5657,1.5645,1.5685,1.5685,1.5685,0,1.5302,1.5331,1.5352,1.5398,1.5408,1.542,1.5453,1.5472,1.5507,1.5526,1.5549,1.5577,1.5597,1.5614,1.5642,1.5643,1.5658,1.5675,1.5675,1.5679,1.5696,1.5674,1.5641,1.564,1.5683,1.5683,1.5683,0,1.5258,1.5302,1.5321,1.5337,1.5391,1.5399,1.5422,1.5458,1.5476,1.5505,1.5517,1.5547,1.5564,1.5587,1.5623,1.5632,1.5648,1.5667,1.5664,1.5663,1.5665,1.5664,1.5634,1.5674,1.5674,1.5674,1.5674,0,1.5233,1.5244,1.5302,1.5314,1.5328,1.537,1.5384,1.541,1.5442,1.546,1.5496,1.5512,1.5559,1.558,1.5608,1.5628,1.5635,1.5651,1.5658,1.5648,1.5646,1.5657,1.5659,1.5674,1.5674,1.5674,1.5674,0,1.5186,1.5225,1.5249,1.5299,1.5312,1.5321,1.5364,1.5377,1.5406,1.5429,1.5436,1.5482,1.551,1.5548,1.5587,1.5606,1.5622,1.5634,1.561,1.5615,1.561,1.561,1.5586,1.5585,1.5625,1.5624,1.5624,0,1.5167,1.5177,1.523,1.5245,1.5267,1.529,1.5309,1.5352,1.537,1.5412,1.542,1.5451,1.5478,1.552,1.5557,1.5587,1.56,1.559,1.5605,1.5595,1.5601,1.56,1.5602,1.5586,1.5585,1.5585,1.5584,0,1.513,1.515,1.5176,1.5209,1.5231,1.5259,1.5289,1.5299,1.5348,1.5367,1.5396,1.5417,1.5458,1.5489,1.5525,1.5549,1.5575,1.558,1.5581,1.557,1.5556,1.5564,1.5601,1.558,1.558,1.558,1.5581,1.5581,1.5097,1.5109,1.5148,1.5176,1.5204,1.5231,1.5247,1.5279,1.5305,1.5342,1.5366,1.5394,1.5432,1.5483,1.5506,1.5529,1.554,1.5541,1.5541,1.5541,1.5538,1.5553,1.5536,1.5536,1.5536,1.5537,1.5537,0,1.5062,1.509,1.5116,1.5158,1.518,1.5205,1.524,1.5257,1.5282,1.5315,1.5341,1.5376,1.5407,1.5447,1.548,1.5491,1.5504,1.5499,1.5498,1.5504,1.5526,1.5522,1.5488,1.5488,1.5488,1.5488,1.5488,1.5488,1.5047,1.5068,1.5093,1.5129,1.5157,1.5186,1.5204,1.523,1.5257,1.5295,1.5321,1.5347,1.5384,1.542,1.545,1.5461,1.5472,1.5462,1.5477,1.5497,1.5502,1.5506,1.5502,1.5464,1.5464,1.5453,1.5453,1.5453]}]]